Regional Weather Roundup
Issued by NWS

Home | Current Version | Previous Version | Graphics & Text | Print | Product List | Glossary On
Versions: 1 2 3 4 5 6 7 8 9 10 11 12 13 14 15 16 17 18 19 20 21 22 23 24 25 26 27
000
ASUS45 KSLC 270710
RWRUT

UTAH REGIONAL WEATHER ROUNDUP
NATIONAL WEATHER SERVICE SALT LAKE CITY UT
100 AM MDT FRI MAY 27 2016

UTZ001>011-023>025-270800-

NORTHERN UTAH

CITY           SKY/WX    TMP DP  RH WIND       PRES   REMARKS
BRIGHAM CITY     N/A     53  45  74 N3        29.96S
HILL AFB       PTCLDY    51  39  63 E14       29.97R
LOGAN          PTCLDY    52  42  69 CALM      29.96S
OGDEN          PTCLDY    52  41  66 S9        29.96R
PROVO AIRPORT  PTCLDY    48  37  66 S5        29.99R
SALT LAKE CITY PTCLDY    57  40  52 SE10      29.96R
VERNAL         CLOUDY    51  38  60 S7        29.95R
WENDOVER       PTCLDY    61  36  39 NW7       29.97S
HEBER CITY     PTCLDY    39  36  87 CALM      30.02S
WEST JORDAN    CLEAR     52  39  62 SW6       29.98S

$$

UTZ012>022-026-027-270800-

SOUTHERN/CENTRAL UTAH

CITY           SKY/WX    TMP DP  RH WIND       PRES   REMARKS
BLANDING       PTCLDY    47  32  55 N6        30.04S
BRYCE CANYON   PTCLDY    38  32  79 NW5       30.09F WCI  34
CEDAR CITY     CLEAR     46  34  62 CALM      30.02S
DELTA          MOCLDY    50  37  62 SE7       29.99S
HANKSVILLE     MOCLDY    46  30  53 CALM      29.95S
MILFORD        PTCLDY    47  41  80 SW7       30.00S
MOAB/CYNLANDS  PTCLDY    53  30  41 NE6       29.90S
PRICE          CLEAR     50  31  48 NW7       29.96F
ST GEORGE      MOSUNNY   63  37  39 NE3       29.94S
KANAB          CLEAR     46  36  66 CALM      30.04F

$$

REGIONAL REPORTS     COLORADO/ARIZONA

CITY           SKY/WX    TMP DP  RH WIND       PRES   REMARKS
CRAIG, CO      CLOUDY    45  37  73 S5        29.97R
GRAND JUNCTION CLOUDY    49  41  74 W5        29.92R
RIFLE          CLOUDY    51  36  56 CALM      29.95R
MONTROSE       CLOUDY    47  37  68 SE16      29.98S
CORTEZ         CLOUDY    41  34  76 SE3       29.97F
PAGE, AZ       PTCLDY    61  35  37 W3        29.95S
GRAND CANYON   CLEAR     33  25  72 CALM      30.08F
KINGMAN        CLEAR     62  29  28 S12       29.93F
FLAGSTAFF      CLEAR     35  27  72 W5        30.09F WCI  31

$$

REGIONAL REPORTS    NEVADA/IDAHO/WYOMING

CITY           SKY/WX    TMP DP  RH WIND       PRES   REMARKS
LAS VEGAS, NV  PTCLDY    74  31  20 S7        29.81S
ELY            PTCLDY    37  31  78 S6        30.07S WCI  32
ELKO           PTCLDY    46  41  82 CALM      30.02F
POCATELLO, ID  CLEAR     53  38  56 SW13      29.95S
BURLEY         CLEAR     51  38  60 SW9       29.93F
EVANSTON, WY   CLOUDY    39  33  79 SW8       30.04F WCI  33
ROCK SPRINGS   RAIN      45  42  89 E5        30.03R
KEMMERER         N/A     41  32  70 N7        30.04S

$$




USA.gov is the U.S. government's official web portal to all federal, state and local government web resources and services.